TimeMDT,TemperatureF,Dew PointF,Humidity,Sea Level PressureIn,VisibilityMPH,Wind Direction,Wind SpeedMPH,Gust SpeedMPH,PrecipitationIn,Events,Conditions,WindDirDegrees,DateUTC
12:53 AM,64.0,55.0,73,29.72,10.0,NW,5.8,-,N/A,,Partly Cloudy,310,2013-09-19 06:53:00
1:53 AM,62.1,55.0,78,29.71,10.0,Calm,Calm,-,N/A,,Partly Cloudy,0,2013-09-19 07:53:00
2:53 AM,60.1,55.0,83,29.72,10.0,WNW,5.8,-,N/A,,Clear,300,2013-09-19 08:53:00
3:53 AM,60.1,55.0,83,29.74,10.0,West,6.9,-,N/A,,Scattered Clouds,270,2013-09-19 09:53:00
4:53 AM,59.0,55.0,87,29.75,10.0,Calm,Calm,-,N/A,,Clear,0,2013-09-19 10:53:00
5:53 AM,60.1,55.9,86,29.78,10.0,Calm,Calm,-,N/A,,Partly Cloudy,0,2013-09-19 11:53:00
6:53 AM,60.1,57.0,90,29.83,10.0,West,9.2,-,N/A,,Clear,280,2013-09-19 12:53:00
7:53 AM,62.1,59.0,90,29.85,10.0,NNW,4.6,-,0.00,,Mostly Cloudy,330,2013-09-19 13:53:00
8:53 AM,64.9,55.9,73,29.89,10.0,North,19.6,25.3,N/A,,Clear,350,2013-09-19 14:53:00
9:53 AM,64.9,53.1,65,29.94,10.0,North,16.1,29.9,N/A,,Mostly Cloudy,10,2013-09-19 15:53:00
10:08 AM,64.4,51.8,64,30.06,10.0,North,23.0,31.1,N/A,,Mostly Cloudy,10,2013-09-19 16:08:00
10:32 AM,64.4,51.8,64,30.06,10.0,North,19.6,29.9,N/A,,Scattered Clouds,10,2013-09-19 16:32:00
10:42 AM,62.6,50.0,63,30.07,10.0,North,19.6,29.9,N/A,,Mostly Cloudy,360,2013-09-19 16:42:00
10:53 AM,64.0,48.9,58,29.96,10.0,North,21.9,28.8,N/A,,Mostly Cloudy,10,2013-09-19 16:53:00
11:23 AM,64.4,48.2,56,30.06,10.0,NNE,20.7,28.8,N/A,,Partly Cloudy,20,2013-09-19 17:23:00
11:53 AM,66.9,48.0,51,29.96,10.0,NNE,17.3,26.5,N/A,,Clear,20,2013-09-19 17:53:00
12:53 PM,69.1,46.0,44,29.95,10.0,NNE,20.7,27.6,N/A,,Clear,20,2013-09-19 18:53:00
1:53 PM,71.1,48.0,44,29.94,10.0,North,19.6,27.6,N/A,,Clear,10,2013-09-19 19:53:00
2:53 PM,72.0,48.0,43,29.96,10.0,North,16.1,28.8,N/A,,Scattered Clouds,10,2013-09-19 20:53:00
3:53 PM,71.1,48.9,45,29.96,10.0,NNE,16.1,25.3,N/A,,Clear,20,2013-09-19 21:53:00
4:53 PM,69.1,48.9,49,29.98,10.0,North,16.1,20.7,N/A,,Partly Cloudy,10,2013-09-19 22:53:00
5:53 PM,66.9,48.0,51,29.98,10.0,North,17.3,-,N/A,,Mostly Cloudy,360,2013-09-19 23:53:00
6:53 PM,61.0,48.0,62,30.01,10.0,North,12.7,-,N/A,,Clear,360,2013-09-20 00:53:00
7:53 PM,55.9,48.9,77,30.06,10.0,North,6.9,-,N/A,,Clear,10,2013-09-20 01:53:00
8:53 PM,53.1,48.9,86,30.09,10.0,NE,5.8,-,N/A,,Clear,40,2013-09-20 02:53:00
9:53 PM,55.0,50.0,83,30.10,10.0,East,3.5,-,N/A,,Clear,100,2013-09-20 03:53:00
10:53 PM,54.0,50.0,86,30.12,10.0,Calm,Calm,-,N/A,,Clear,0,2013-09-20 04:53:00
11:53 PM,54.0,50.0,86,30.12,10.0,SSE,4.6,-,N/A,,Scattered Clouds,160,2013-09-20 05:53:00